TANUSHA-3

Last updated on Tue Sep 08 2020 01:02:08 GMT+0100 (British Summer Time)

1 43597U 98067PJ 20248.19053934 .05224124 12197-4 75260-3 0 9995 2 43597 51.6102 220.8087 0003266 222.6275 137.4495 16.33928828117760

Satellite not in orbit